Weather History for Minneapolis Crystal, MN

Change the Weather History Date:

Tuesday, November 20, 2012

  Actual Average Record
Temperature  
Mean Temperature 40 °F -  
Max Temperature 53 °F 38 °F 54 °F (2003)
Min Temperature 28 °F 23 °F 6 °F (2014)
Degree Days  
Heating Degree Days 24    
Moisture  
Dew Point 31 °F    
Average Humidity 74    
Maximum Humidity 96    
Minimum Humidity 43    
Precipitation  
Precipitation 0.00 in - - ()
Sea Level Pressure  
Sea Level Pressure 30.13 in    
Wind  
Wind Speed 3 mph (WSW)    
Max Wind Speed 8 mph    
Max Gust Speed -    
Visibility 8 miles    
Events      
Averages and records for this station are not official NWS values.
T = Trace of Precipitation, MM = Missing Value Source: NWS Daily Summary

Daily Weather History Graph

Daily Weather History Graph

Search for Another Location

Airport:

Trip Planner

Search our weather history database for the weather conditions in past years. The results will help you decide how hot, cold, wet, or windy it might be!

Date:

Astronomy

Nov. 20, 2012 Rise Set
Actual Time 7:18 AM CST 4:39 PM CST
Civil Twilight 6:46 AM CST 5:11 PM CST
Nautical Twilight 6:10 AM CST 5:47 PM CST
Astronomical Twilight 5:35 AM CST 6:22 PM CST
Moon 12:43 PM CST (11/20) No Moon Set
Length of Visible Light 10h 25m
Length of Day
9h 20m
First Quarter, 51% of the Moon is Illuminated
Nov 20
First Quarter
Nov 28
Full
Dec 6
Last Quarter
Dec 13
New
Dec 19
First Quarter

Hourly Weather History & Observations

Time (CST) Temp. Windchill Dew Point Humidity Pressure Visibility Wind Dir Wind Speed Gust Speed Precip Events Conditions
12:53 AM 39.9 °F 36.7 °F 35.1 °F 83% 30.08 in 8.0 mi NNW 4.6 mph - N/A   Clear
2:53 AM 37.9 °F 33.5 °F 34.0 °F 86% 30.12 in 7.0 mi NW 5.8 mph - N/A   Clear
3:53 AM 37.0 °F 34.5 °F 34.0 °F 89% 30.12 in 7.0 mi NNE 3.5 mph - N/A   Clear
4:53 AM 35.1 °F - 32.0 °F 89% 30.14 in 6.0 mi Calm Calm - N/A   Clear
6:21 AM 30.2 °F - 28.4 °F 93% 30.13 in 2.0 mi Calm Calm - N/A   Clear
6:31 AM 30.2 °F 26.7 °F 28.4 °F 93% 30.14 in 1.5 mi WNW 3.5 mph - N/A   Clear
6:37 AM 30.2 °F 25.4 °F 28.4 °F 93% 30.14 in 3.0 mi WNW 4.6 mph - N/A   Clear
6:53 AM 28.9 °F - 28.0 °F 96% 30.17 in 3.0 mi Calm Calm - N/A   Clear
7:53 AM 30.0 °F 25.2 °F 28.0 °F 92% 30.18 in 8.0 mi NW 4.6 mph - N/A   Clear
8:53 AM 36.0 °F - 32.0 °F 86% 30.17 in 4.0 mi Calm Calm - N/A   Clear
9:53 AM 39.0 °F - 33.1 °F 79% 30.18 in 6.0 mi Calm Calm - N/A   Haze
10:53 AM 43.0 °F 39.5 °F 34.0 °F 71% 30.19 in 8.0 mi WNW 5.8 mph - N/A   Clear
11:53 AM 46.0 °F 44.8 °F 34.0 °F 63% 30.16 in 9.0 mi West 3.5 mph - N/A   Clear
12:53 PM 50.0 °F - 33.1 °F 52% 30.14 in 10.0 mi NW 3.5 mph - N/A   Clear
1:53 PM 52.0 °F - 33.1 °F 49% 30.13 in 10.0 mi Calm Calm - N/A   Clear
2:53 PM 53.1 °F - 30.9 °F 43% 30.13 in 10.0 mi Calm Calm - N/A   Clear
3:53 PM 50.0 °F - 28.0 °F 43% 30.11 in 10.0 mi South 3.5 mph - N/A   Clear
4:53 PM 46.0 °F - 28.0 °F 50% 30.11 in 10.0 mi Calm Calm - N/A   Clear
5:53 PM 41.0 °F - 28.0 °F 60% 30.12 in 10.0 mi Calm Calm - N/A   Clear
6:53 PM 36.0 °F 33.3 °F 28.0 °F 73% 30.11 in 10.0 mi SSW 3.5 mph - N/A   Clear
7:53 PM 35.1 °F 31.0 °F 28.9 °F 78% 30.10 in 10.0 mi SE 4.6 mph - N/A   Clear
8:53 PM 39.9 °F 34.5 °F 32.0 °F 73% 30.08 in 10.0 mi SSE 8.1 mph - N/A   Clear
9:53 PM 39.9 °F 35.8 °F 32.0 °F 73% 30.07 in 10.0 mi SSE 5.8 mph - N/A   Clear
10:53 PM 41.0 °F 39.0 °F 32.0 °F 70% 30.06 in 10.0 mi SSE 3.5 mph - N/A   Clear
11:53 PM 39.9 °F 35.8 °F 30.9 °F 70% 30.05 in 10.0 mi SSE 5.8 mph - N/A   Clear